Location: Kimberly
(42.5380°N, 114.3640°W)
Time: 19:39:53
(UTC-07:00)

ISS - Visible Passes

Search period start: 14 December 2025 00:00
Search period end: 24 December 2025 00:00
Orbit: 416 x 420 km, 51.6° (Epoch: 14 December)

Date Brightness Start Highest point End Pass type
(mag) Time Alt. Az. Time Alt. Az. Time Alt. Az.
14 Dec -1.9 06:08:36 11° SSW 06:11:27 30° SE 06:14:27 10° ENE visible
15 Dec -1.0 05:23:49 18° SE 05:23:49 18° SE 05:25:58 10° E visible
15 Dec -3.7 06:56:49 10° WSW 07:00:04 59° NNW 07:03:25 10° NE visible
16 Dec -3.8 06:11:36 65° SW 06:12:01 85° SE 06:15:24 10° ENE visible
17 Dec -1.1 05:26:05 20° ENE 05:26:05 20° ENE 05:27:17 10° ENE visible
17 Dec -2.7 06:59:03 18° WNW 07:00:55 29° NNW 07:03:56 10° NE visible
18 Dec -2.9 06:13:19 36° N 06:13:19 36° N 06:15:56 10° NE visible
19 Dec -0.8 05:27:25 13° NE 05:27:25 13° NE 05:27:53 10° NE visible
19 Dec -2.1 07:00:21 16° NW 07:01:49 20° NNW 07:04:24 10° NE visible
20 Dec -2.0 06:14:20 21° N 06:14:20 21° N 06:16:18 10° NE visible
21 Dec -0.6 05:28:13 10° NE 05:28:13 10° NE 05:28:13 10° NE visible
21 Dec -1.8 07:01:08 13° NW 07:02:43 17° N 07:05:02 10° NE visible
22 Dec -1.6 06:14:57 17° N 06:14:57 17° N 06:16:43 10° NE visible
23 Dec -1.8 07:01:37 13° NNW 07:03:32 19° N 07:06:00 10° NE visible
